Вернуться в каталог

COSMOS 839 DEB

АктивенUNKNOWN
NORAD 10619·DEBRIS·🇷🇺 Russia

Запущен Jul 8, 1976 с Plesetsk Cosmodrome

Loading…

Ближайшие Пролёты (ближайшие 24 часа)

TLE

СвежийSource: Space-Track

Эпоха: Sep 13, 2026, 22:03 UTC

1 10619U 76067AT  26256.91893422 -.00000063  00000-0 -29848-4 0  9998
2 10619  65.8283  76.3085 0670500 324.5593 144.3054 12.33185442259278

Отслеживайте COSMOS 839 DEB в реальном времени с AllMySat

Download on the App Store